GFSNE_prec_precacc_102.txt.gz
Total_Precipitation_Accumulation
0.45 0.47 0.46 0.39 0.34 0.28 0.35 0.41 0.69 0.50 0.13 0.04 0.04 0.04 0.07 0.10 0.12 0.18 0.21 0.16 0.15 0.14 0.11 0.12 0.14 0.11 0.04 0.03 0.03 0.05 0.07 0.10 0.12 0.16 0.19 0.19 0.21 0.22
0.44 0.45 0.36 0.29 0.29 0.27 0.32 0.33 0.37 0.39 0.23 0.01 0.01 0.00 0.02 0.05 0.06 0.07 0.09 0.16 0.16 0.17 0.21 0.09 0.04 0.10 0.16 0.14 0.07 0.07 0.11 0.15 0.16 0.18 0.20 0.22 0.25 0.28
0.41 0.34 0.27 0.24 0.24 0.23 0.22 0.22 0.19 0.20 0.24 0.10 0.04 0.04 0.04 0.04 0.01 0.01 0.01 0.03 0.07 0.11 0.21 0.22 0.18 0.18 0.18 0.22 0.24 0.15 0.11 0.12 0.17 0.18 0.15 0.17 0.18 0.21
0.45 0.38 0.30 0.30 0.33 0.36 0.38 0.36 0.31 0.27 0.37 0.33 0.17 0.12 0.09 0.07 0.05 0.04 0.03 0.02 0.03 0.08 0.17 0.28 0.35 0.29 0.27 0.26 0.26 0.22 0.13 0.08 0.07 0.14 0.18 0.13 0.14 0.16
0.47 0.45 0.36 0.30 0.25 0.22 0.24 0.26 0.24 0.25 0.28 0.29 0.18 0.12 0.10 0.08 0.10 0.09 0.07 0.05 0.03 0.06 0.08 0.13 0.19 0.25 0.30 0.33 0.30 0.28 0.25 0.15 0.12 0.12 0.24 0.29 0.18 0.17
0.23 0.27 0.37 0.44 0.44 0.39 0.36 0.31 0.30 0.31 0.31 0.31 0.22 0.16 0.16 0.10 0.16 0.15 0.14 0.11 0.10 0.10 0.13 0.13 0.20 0.22 0.22 0.23 0.26 0.23 0.21 0.21 0.15 0.11 0.12 0.31 0.40 0.23
0.18 0.20 0.21 0.24 0.24 0.25 0.27 0.26 0.32 0.38 0.39 0.40 0.32 0.22 0.20 0.17 0.19 0.21 0.29 0.20 0.25 0.32 0.29 0.25 0.25 0.25 0.26 0.35 0.36 0.35 0.30 0.31 0.25 0.19 0.19 0.21 0.45 0.62
0.07 0.07 0.09 0.13 0.10 0.15 0.20 0.23 0.24 0.32 0.39 0.38 0.39 0.38 0.26 0.29 0.31 0.40 0.47 0.52 0.51 0.42 0.43 0.36 0.31 0.37 0.43 0.46 0.57 0.57 0.55 0.47 0.41 0.31 0.27 0.28 0.34 0.55
0.08 0.09 0.11 0.15 0.21 0.10 0.21 0.28 0.34 0.52 0.66 0.66 0.65 0.59 0.63 0.71 0.72 0.72 0.75 0.82 0.78 0.62 0.56 0.54 0.52 0.55 0.48 0.49 0.59 0.34 0.34 0.41 0.41 0.40 0.33 0.29 0.29 0.36
0.18 0.15 0.14 0.16 0.31 0.35 0.37 0.51 0.62 0.80 0.94 1.09 1.35 1.51 1.50 1.21 1.06 1.01 0.97 0.91 0.79 0.77 0.69 0.73 0.60 0.59 0.56 0.51 0.80 0.47 0.35 0.44 0.58 0.56 0.52 0.48 0.42 0.49
0.29 0.38 0.42 0.29 0.68 0.59 0.40 0.45 0.55 0.67 0.94 0.89 0.92 0.94 0.94 0.80 0.70 0.79 0.94 1.14 1.16 0.98 0.87 0.84 0.74 0.73 0.68 0.62 0.67 0.72 0.46 0.44 0.53 0.67 0.70 0.76 0.69 0.69
0.44 0.51 0.92 0.64 0.82 0.57 0.48 0.43 0.50 0.54 0.58 0.65 0.73 0.76 0.70 0.71 0.82 0.69 0.75 1.21 1.55 1.46 1.14 1.06 0.88 0.90 1.02 0.93 0.80 0.73 0.64 0.58 0.58 0.60 0.64 0.67 0.58 0.50
0.51 0.47 0.53 0.98 0.59 0.59 0.61 0.55 1.02 1.12 1.21 0.96 0.87 0.91 0.82 0.75 0.73 0.75 0.77 0.96 1.28 1.38 1.28 1.55 1.46 1.33 1.37 1.14 0.90 0.75 0.65 0.59 0.55 0.54 0.51 0.49 0.47 0.42
0.56 0.68 0.95 1.03 0.67 0.66 0.78 1.12 1.35 1.14 0.99 1.05 1.10 1.11 1.09 1.10 1.06 0.97 0.93 0.90 0.92 1.04 0.99 1.09 1.31 1.02 0.99 0.91 0.74 0.61 0.52 0.47 0.43 0.45 0.54 0.47 0.44 0.32
0.79 1.09 1.12 0.86 0.70 0.79 1.04 1.12 1.16 1.30 1.56 1.73 1.76 1.69 1.56 1.41 1.24 1.11 0.95 0.83 0.73 0.70 0.67 0.71 0.82 0.74 0.75 0.74 0.59 0.45 0.40 0.31 0.25 0.28 0.55 0.48 0.50 0.44
1.15 1.31 1.30 1.23 1.21 1.33 1.39 1.37 1.37 1.45 1.52 1.61 1.56 1.45 1.27 1.13 1.06 1.02 0.96 0.87 0.89 0.76 0.60 0.51 0.47 0.52 0.47 0.33 0.34 0.26 0.18 0.26 0.22 0.22 0.41 0.68 0.77 0.87
1.39 1.55 1.56 1.52 1.48 1.46 1.39 1.38 1.39 1.35 1.31 1.25 1.17 1.10 1.01 0.91 0.80 0.70 0.70 0.63 0.62 0.39 0.33 0.33 0.29 0.30 0.24 0.25 0.29 0.12 0.12 0.14 0.21 0.47 0.36 0.59 0.79 0.89
1.42 1.41 1.39 1.35 1.29 1.21 1.12 1.02 0.91 0.83 0.74 0.66 0.61 0.54 0.50 0.47 0.42 0.36 0.40 0.39 0.35 0.28 0.26 0.26 0.45 0.38 0.32 0.22 0.23 0.27 0.17 0.13 0.14 0.17 0.24 0.59 0.70 1.04
1.07 1.04 1.01 0.93 0.81 0.70 0.64 0.58 0.56 0.50 0.40 0.38 0.35 0.29 0.24 0.20 0.18 0.19 0.17 0.15 0.14 0.13 0.13 0.19 0.30 0.49 0.55 0.43 0.30 0.13 0.35 0.23 0.21 0.20 0.18 0.35 0.66 0.70
0.62 0.56 0.52 0.46 0.39 0.35 0.31 0.29 0.27 0.24 0.20 0.16 0.15 0.15 0.17 0.20 0.22 0.17 0.15 0.16 0.16 0.16 0.15 0.09 0.12 0.19 0.48 0.69 0.61 0.16 0.14 0.57 0.32 0.27 0.24 0.25 0.30 0.50
0.39 0.37 0.33 0.33 0.33 0.31 0.30 0.27 0.29 0.29 0.29 0.30 0.29 0.32 0.33 0.36 0.33 0.31 0.29 0.22 0.22 0.20 0.14 0.07 0.06 0.11 0.15 0.27 0.46 0.24 0.10 0.18 0.21 0.28 0.28 0.34 0.35 0.28
0.31 0.29 0.27 0.26 0.26 0.25 0.24 0.25 0.25 0.24 0.24 0.24 0.22 0.21 0.20 0.21 0.22 0.20 0.19 0.20 0.16 0.15 0.11 0.06 0.07 0.12 0.17 0.23 0.35 0.26 0.17 0.15 0.07 0.07 0.16 0.32 0.43 0.56
0.24 0.21 0.18 0.18 0.17 0.18 0.18 0.18 0.16 0.16 0.18 0.21 0.21 0.23 0.25 0.23 0.20 0.21 0.18 0.15 0.14 0.11 0.12 0.13 0.14 0.16 0.16 0.12 0.16 0.28 0.20 0.18 0.15 0.17 0.16 0.19 0.22 0.17

GFSNE_prec_precacc_108.txt.gz
Total_Precipitation_Accumulation
0.76 0.77 0.71 0.52 0.41 0.33 0.36 0.41 0.69 0.50 0.13 0.04 0.04 0.04 0.07 0.10 0.12 0.18 0.21 0.16 0.15 0.14 0.11 0.12 0.14 0.11 0.04 0.03 0.03 0.05 0.07 0.10 0.12 0.16 0.19 0.19 0.21 0.22
0.72 0.71 0.60 0.46 0.40 0.34 0.35 0.33 0.37 0.40 0.24 0.01 0.01 0.01 0.03 0.05 0.07 0.07 0.09 0.16 0.16 0.17 0.21 0.09 0.04 0.10 0.16 0.14 0.07 0.07 0.11 0.15 0.16 0.18 0.20 0.22 0.25 0.28
0.73 0.62 0.54 0.45 0.41 0.30 0.26 0.25 0.21 0.21 0.24 0.10 0.04 0.04 0.06 0.04 0.03 0.03 0.03 0.05 0.07 0.12 0.22 0.23 0.18 0.19 0.19 0.23 0.24 0.15 0.11 0.12 0.17 0.18 0.15 0.17 0.18 0.21
0.68 0.63 0.55 0.55 0.51 0.47 0.45 0.39 0.33 0.28 0.37 0.33 0.17 0.12 0.09 0.07 0.06 0.05 0.03 0.02 0.03 0.08 0.18 0.29 0.37 0.31 0.27 0.27 0.26 0.22 0.13 0.08 0.07 0.14 0.18 0.13 0.14 0.16
0.58 0.57 0.50 0.46 0.37 0.31 0.28 0.29 0.24 0.26 0.28 0.29 0.18 0.12 0.10 0.08 0.10 0.09 0.07 0.05 0.03 0.06 0.08 0.13 0.19 0.26 0.31 0.33 0.31 0.29 0.26 0.16 0.14 0.14 0.26 0.31 0.20 0.21
0.26 0.31 0.47 0.59 0.55 0.47 0.41 0.33 0.31 0.32 0.31 0.31 0.22 0.16 0.17 0.10 0.16 0.15 0.14 0.11 0.10 0.11 0.14 0.15 0.23 0.25 0.26 0.30 0.37 0.36 0.36 0.35 0.25 0.21 0.22 0.45 0.57 0.43
0.22 0.27 0.29 0.33 0.40 0.40 0.38 0.32 0.38 0.43 0.41 0.41 0.32 0.22 0.20 0.17 0.19 0.21 0.30 0.23 0.32 0.40 0.44 0.45 0.48 0.49 0.55 0.59 0.52 0.45 0.35 0.38 0.34 0.31 0.34 0.40 0.67 0.84
0.17 0.14 0.19 0.32 0.26 0.28 0.27 0.27 0.28 0.37 0.43 0.39 0.40 0.38 0.26 0.31 0.32 0.42 0.49 0.55 0.53 0.44 0.47 0.40 0.35 0.40 0.45 0.49 0.61 0.62 0.61 0.55 0.50 0.39 0.33 0.33 0.40 0.61
0.15 0.20 0.23 0.24 0.29 0.14 0.23 0.29 0.35 0.53 0.67 0.66 0.65 0.59 0.63 0.72 0.74 0.77 0.83 0.93 0.87 0.68 0.62 0.63 0.63 0.66 0.58 0.57 0.66 0.38 0.36 0.42 0.42 0.40 0.34 0.30 0.30 0.37
0.23 0.20 0.19 0.21 0.39 0.42 0.40 0.54 0.64 0.82 0.98 1.12 1.38 1.55 1.56 1.29 1.17 1.13 1.08 1.01 0.92 0.89 0.82 0.89 0.73 0.70 0.62 0.54 0.83 0.48 0.36 0.45 0.58 0.56 0.52 0.48 0.42 0.49
0.33 0.42 0.48 0.33 0.77 0.66 0.45 0.53 0.66 0.80 1.13 1.08 1.10 1.12 1.12 0.97 0.85 0.93 1.06 1.26 1.27 1.06 0.91 0.87 0.76 0.75 0.68 0.62 0.68 0.72 0.47 0.44 0.53 0.67 0.70 0.76 0.69 0.69
0.51 0.60 1.07 0.77 1.04 0.79 0.70 0.68 0.81 0.84 0.85 0.91 0.95 0.93 0.85 0.81 0.90 0.75 0.80 1.27 1.61 1.48 1.14 1.06 0.88 0.90 1.03 0.93 0.80 0.73 0.64 0.58 0.58 0.60 0.64 0.67 0.58 0.50
0.79 0.74 0.83 1.32 0.86 0.83 0.85 0.79 1.30 1.37 1.43 1.13 1.02 1.04 0.93 0.83 0.79 0.78 0.79 0.98 1.28 1.38 1.28 1.56 1.46 1.33 1.37 1.15 0.90 0.75 0.65 0.59 0.55 0.54 0.51 0.49 0.47 0.42
0.85 0.94 1.16 1.19 0.82 0.81 0.93 1.28 1.52 1.29 1.10 1.12 1.15 1.15 1.12 1.11 1.07 0.97 0.93 0.90 0.92 1.04 0.99 1.09 1.31 1.02 0.99 0.91 0.74 0.61 0.52 0.47 0.43 0.45 0.54 0.47 0.44 0.32
0.99 1.29 1.31 1.01 0.81 0.87 1.09 1.17 1.20 1.33 1.58 1.74 1.76 1.69 1.56 1.41 1.24 1.11 0.95 0.83 0.73 0.70 0.67 0.71 0.82 0.74 0.75 0.74 0.59 0.45 0.40 0.31 0.25 0.28 0.55 0.48 0.50 0.44
1.22 1.36 1.33 1.26 1.24 1.36 1.41 1.38 1.38 1.45 1.52 1.61 1.56 1.45 1.27 1.13 1.06 1.02 0.96 0.87 0.89 0.76 0.60 0.51 0.47 0.52 0.47 0.33 0.34 0.26 0.18 0.26 0.22 0.22 0.41 0.68 0.77 0.87
1.53 1.67 1.65 1.57 1.51 1.47 1.40 1.38 1.39 1.35 1.31 1.25 1.17 1.10 1.01 0.91 0.80 0.70 0.70 0.63 0.62 0.39 0.33 0.33 0.29 0.30 0.24 0.25 0.29 0.12 0.12 0.14 0.21 0.47 0.36 0.59 0.79 0.89
1.47 1.47 1.46 1.41 1.33 1.25 1.14 1.03 0.91 0.83 0.74 0.66 0.61 0.54 0.50 0.47 0.42 0.36 0.40 0.39 0.35 0.28 0.26 0.26 0.45 0.38 0.32 0.22 0.23 0.27 0.17 0.13 0.14 0.17 0.24 0.59 0.70 1.04
1.07 1.04 1.01 0.93 0.81 0.70 0.64 0.58 0.56 0.50 0.40 0.38 0.35 0.29 0.24 0.20 0.18 0.19 0.17 0.15 0.14 0.13 0.13 0.19 0.30 0.49 0.55 0.43 0.30 0.13 0.35 0.23 0.21 0.20 0.18 0.35 0.66 0.70
0.62 0.56 0.52 0.46 0.39 0.35 0.31 0.29 0.27 0.24 0.20 0.16 0.15 0.15 0.17 0.20 0.22 0.17 0.15 0.16 0.16 0.16 0.15 0.09 0.12 0.19 0.48 0.69 0.61 0.16 0.14 0.57 0.32 0.27 0.24 0.25 0.30 0.50
0.39 0.37 0.33 0.33 0.33 0.31 0.30 0.27 0.29 0.29 0.29 0.30 0.29 0.32 0.33 0.36 0.33 0.31 0.29 0.22 0.22 0.20 0.14 0.07 0.06 0.11 0.15 0.27 0.46 0.24 0.10 0.18 0.21 0.28 0.28 0.34 0.35 0.28
0.31 0.29 0.27 0.26 0.26 0.25 0.24 0.25 0.25 0.24 0.24 0.24 0.22 0.21 0.20 0.21 0.22 0.20 0.19 0.20 0.16 0.15 0.11 0.06 0.07 0.12 0.17 0.23 0.35 0.26 0.17 0.15 0.07 0.07 0.16 0.33 0.44 0.56
0.24 0.21 0.18 0.18 0.17 0.18 0.18 0.18 0.16 0.16 0.18 0.21 0.21 0.23 0.25 0.23 0.20 0.21 0.18 0.15 0.14 0.11 0.12 0.13 0.14 0.16 0.16 0.12 0.16 0.28 0.20 0.18 0.15 0.17 0.16 0.19 0.22 0.18

GFSNE_prec_precacc_114.txt.gz
Total_Precipitation_Accumulation
1.05 1.21 1.13 0.85 0.63 0.50 0.48 0.48 0.75 0.57 0.16 0.05 0.05 0.04 0.07 0.10 0.12 0.18 0.21 0.16 0.15 0.14 0.11 0.12 0.14 0.11 0.04 0.03 0.03 0.05 0.07 0.10 0.12 0.16 0.19 0.23 0.25 0.33
0.82 0.87 0.82 0.70 0.63 0.54 0.53 0.46 0.47 0.46 0.28 0.03 0.03 0.02 0.03 0.05 0.07 0.07 0.09 0.16 0.16 0.17 0.21 0.09 0.04 0.10 0.16 0.14 0.07 0.07 0.11 0.15 0.16 0.18 0.20 0.22 0.25 0.28
0.80 0.87 0.80 0.59 0.56 0.49 0.46 0.41 0.31 0.29 0.30 0.14 0.07 0.06 0.07 0.05 0.04 0.03 0.04 0.05 0.08 0.13 0.23 0.24 0.19 0.19 0.19 0.23 0.24 0.15 0.11 0.12 0.17 0.18 0.15 0.17 0.18 0.21
0.71 0.77 0.92 0.94 0.84 0.75 0.71 0.60 0.48 0.42 0.52 0.45 0.24 0.15 0.10 0.08 0.07 0.06 0.04 0.03 0.04 0.12 0.21 0.32 0.39 0.33 0.28 0.27 0.26 0.22 0.13 0.08 0.07 0.14 0.18 0.14 0.15 0.17
0.62 0.66 0.71 0.79 0.89 0.76 0.63 0.57 0.48 0.48 0.49 0.48 0.31 0.18 0.12 0.08 0.10 0.09 0.08 0.07 0.06 0.09 0.10 0.14 0.19 0.26 0.31 0.34 0.31 0.29 0.26 0.19 0.21 0.26 0.40 0.45 0.34 0.33
0.31 0.47 0.61 0.74 0.83 0.83 0.80 0.65 0.62 0.60 0.52 0.48 0.38 0.27 0.21 0.13 0.19 0.17 0.16 0.14 0.14 0.12 0.15 0.16 0.24 0.26 0.26 0.31 0.38 0.38 0.39 0.41 0.34 0.29 0.28 0.48 0.58 0.44
0.23 0.30 0.40 0.47 0.55 0.59 0.71 0.67 0.67 0.68 0.64 0.59 0.46 0.32 0.26 0.20 0.22 0.23 0.33 0.29 0.40 0.45 0.47 0.46 0.50 0.51 0.58 0.66 0.59 0.53 0.45 0.47 0.42 0.35 0.36 0.41 0.67 0.84
0.20 0.16 0.21 0.45 0.48 0.54 0.57 0.60 0.66 0.75 0.73 0.61 0.56 0.52 0.35 0.39 0.39 0.48 0.53 0.59 0.58 0.47 0.49 0.46 0.42 0.45 0.48 0.51 0.65 0.64 0.63 0.58 0.52 0.41 0.34 0.33 0.40 0.61
0.20 0.27 0.31 0.31 0.40 0.29 0.57 0.62 0.64 0.87 1.00 0.91 0.89 0.76 0.76 0.83 0.86 0.88 0.92 0.97 0.89 0.70 0.66 0.70 0.70 0.72 0.64 0.63 0.74 0.41 0.38 0.44 0.44 0.41 0.35 0.31 0.30 0.37
0.28 0.28 0.28 0.29 0.50 0.53 0.52 0.72 0.89 1.06 1.22 1.33 1.51 1.63 1.62 1.36 1.25 1.21 1.13 1.08 1.00 0.95 0.90 0.98 0.85 0.83 0.76 0.67 0.98 0.55 0.39 0.47 0.60 0.57 0.52 0.49 0.42 0.49
0.38 0.48 0.58 0.41 0.89 0.79 0.53 0.65 0.84 0.97 1.34 1.32 1.34 1.33 1.26 1.07 0.92 0.96 1.09 1.29 1.33 1.14 1.04 1.03 0.92 0.89 0.80 0.71 0.77 0.81 0.50 0.46 0.53 0.67 0.70 0.76 0.69 0.69
0.54 0.65 1.21 0.87 1.19 0.89 0.76 0.72 0.90 0.96 0.97 1.02 1.08 1.05 0.94 0.88 0.99 0.81 0.85 1.33 1.71 1.63 1.31 1.24 1.08 1.10 1.22 1.06 0.87 0.76 0.66 0.59 0.58 0.60 0.64 0.67 0.58 0.50
0.98 0.87 0.96 1.49 0.99 0.98 0.98 0.88 1.42 1.49 1.57 1.25 1.14 1.17 1.05 0.94 0.91 0.92 0.92 1.12 1.45 1.56 1.45 1.69 1.57 1.43 1.46 1.22 0.94 0.75 0.65 0.59 0.55 0.54 0.51 0.49 0.47 0.42
1.20 1.37 1.67 1.61 1.04 0.97 1.06 1.48 1.74 1.43 1.18 1.20 1.23 1.23 1.20 1.20 1.15 1.07 1.03 0.99 1.02 1.11 1.05 1.15 1.38 1.10 1.05 0.95 0.76 0.61 0.52 0.47 0.43 0.45 0.54 0.47 0.44 0.32
1.45 1.71 1.73 1.46 1.25 1.24 1.42 1.44 1.41 1.50 1.75 1.91 1.95 1.86 1.67 1.46 1.26 1.13 0.96 0.84 0.75 0.71 0.67 0.71 0.82 0.74 0.75 0.74 0.59 0.45 0.40 0.31 0.25 0.29 0.55 0.48 0.50 0.44
1.57 1.70 1.64 1.54 1.52 1.67 1.71 1.65 1.63 1.66 1.69 1.74 1.65 1.52 1.32 1.17 1.09 1.04 0.97 0.88 0.90 0.76 0.60 0.52 0.47 0.52 0.47 0.33 0.34 0.26 0.18 0.26 0.22 0.22 0.41 0.68 0.77 0.87
1.64 1.79 1.79 1.72 1.64 1.59 1.51 1.50 1.51 1.48 1.44 1.37 1.27 1.17 1.06 0.94 0.83 0.72 0.72 0.64 0.64 0.41 0.34 0.34 0.30 0.30 0.24 0.25 0.29 0.12 0.12 0.14 0.21 0.47 0.36 0.59 0.79 0.89
1.48 1.50 1.51 1.47 1.41 1.34 1.24 1.12 0.99 0.91 0.82 0.73 0.67 0.59 0.54 0.51 0.44 0.38 0.42 0.41 0.37 0.29 0.28 0.26 0.45 0.38 0.32 0.22 0.23 0.27 0.17 0.13 0.14 0.17 0.24 0.59 0.70 1.04
1.07 1.05 1.01 0.93 0.82 0.71 0.64 0.59 0.57 0.50 0.41 0.39 0.36 0.30 0.24 0.20 0.18 0.19 0.17 0.16 0.14 0.13 0.13 0.19 0.30 0.49 0.55 0.43 0.30 0.13 0.35 0.23 0.21 0.20 0.18 0.35 0.66 0.70
0.62 0.56 0.52 0.46 0.39 0.35 0.31 0.29 0.27 0.24 0.20 0.16 0.15 0.15 0.17 0.20 0.22 0.17 0.15 0.16 0.16 0.16 0.15 0.09 0.12 0.19 0.48 0.69 0.61 0.16 0.14 0.57 0.32 0.27 0.24 0.25 0.30 0.50
0.39 0.37 0.33 0.33 0.33 0.31 0.30 0.27 0.29 0.29 0.29 0.30 0.29 0.32 0.33 0.36 0.33 0.31 0.29 0.22 0.22 0.20 0.14 0.07 0.06 0.11 0.15 0.27 0.46 0.24 0.10 0.18 0.21 0.28 0.28 0.34 0.35 0.28
0.31 0.29 0.27 0.26 0.26 0.25 0.24 0.25 0.25 0.24 0.24 0.24 0.22 0.21 0.20 0.21 0.22 0.20 0.19 0.20 0.16 0.15 0.11 0.06 0.07 0.12 0.17 0.23 0.35 0.26 0.17 0.15 0.07 0.07 0.16 0.33 0.45 0.57
0.24 0.21 0.19 0.18 0.17 0.18 0.18 0.18 0.16 0.16 0.18 0.21 0.21 0.23 0.25 0.23 0.20 0.21 0.18 0.15 0.14 0.11 0.12 0.13 0.14 0.16 0.16 0.12 0.16 0.28 0.20 0.18 0.15 0.17 0.16 0.19 0.22 0.18

GFSNE_prec_precacc_117.txt.gz
Total_Precipitation_Accumulation
1.06 1.22 1.14 0.85 0.64 0.52 0.54 0.60 0.89 0.71 0.20 0.06 0.06 0.06 0.09 0.10 0.12 0.18 0.21 0.16 0.15 0.14 0.11 0.12 0.14 0.11 0.04 0.03 0.03 0.05 0.07 0.10 0.12 0.16 0.20 0.24 0.26 0.33
0.83 0.87 0.82 0.71 0.65 0.58 0.58 0.53 0.58 0.61 0.39 0.05 0.05 0.04 0.05 0.06 0.07 0.07 0.09 0.16 0.16 0.17 0.21 0.09 0.04 0.10 0.16 0.14 0.07 0.07 0.11 0.15 0.16 0.18 0.20 0.22 0.25 0.28
0.80 0.87 0.80 0.60 0.57 0.49 0.47 0.44 0.37 0.39 0.42 0.20 0.10 0.10 0.10 0.07 0.05 0.04 0.04 0.06 0.08 0.13 0.23 0.24 0.19 0.19 0.19 0.23 0.24 0.15 0.11 0.12 0.17 0.18 0.15 0.17 0.18 0.21
0.71 0.77 0.92 0.94 0.85 0.75 0.72 0.62 0.51 0.46 0.57 0.50 0.31 0.23 0.15 0.10 0.09 0.06 0.05 0.04 0.05 0.12 0.21 0.32 0.39 0.33 0.28 0.27 0.26 0.22 0.13 0.08 0.07 0.14 0.18 0.14 0.15 0.17
0.62 0.66 0.71 0.80 0.89 0.78 0.66 0.61 0.51 0.49 0.52 0.54 0.38 0.26 0.20 0.13 0.13 0.10 0.08 0.08 0.06 0.09 0.10 0.14 0.19 0.26 0.31 0.34 0.31 0.29 0.26 0.19 0.21 0.26 0.40 0.46 0.35 0.35
0.31 0.47 0.62 0.75 0.83 0.84 0.82 0.70 0.67 0.64 0.57 0.58 0.49 0.36 0.28 0.17 0.23 0.19 0.17 0.15 0.14 0.13 0.16 0.16 0.24 0.26 0.26 0.31 0.38 0.38 0.39 0.41 0.34 0.29 0.28 0.49 0.61 0.47
0.23 0.31 0.40 0.48 0.56 0.60 0.72 0.70 0.71 0.72 0.70 0.68 0.60 0.47 0.33 0.24 0.25 0.26 0.41 0.33 0.43 0.47 0.49 0.48 0.51 0.52 0.59 0.66 0.59 0.53 0.45 0.48 0.43 0.37 0.38 0.44 0.71 0.87
0.21 0.16 0.21 0.45 0.49 0.57 0.60 0.64 0.70 0.80 0.80 0.68 0.65 0.63 0.44 0.45 0.44 0.56 0.64 0.69 0.62 0.48 0.51 0.48 0.44 0.48 0.51 0.53 0.67 0.65 0.64 0.58 0.54 0.43 0.36 0.35 0.42 0.62
0.24 0.29 0.32 0.32 0.41 0.30 0.62 0.72 0.73 0.94 1.08 1.01 0.98 0.83 0.84 0.91 0.96 1.01 1.04 1.06 0.94 0.72 0.70 0.76 0.76 0.79 0.69 0.68 0.78 0.43 0.38 0.44 0.45 0.43 0.37 0.33 0.31 0.38
0.36 0.30 0.30 0.30 0.53 0.57 0.53 0.74 0.92 1.14 1.31 1.42 1.64 1.75 1.70 1.45 1.39 1.33 1.25 1.25 1.16 1.07 0.97 1.07 0.90 0.87 0.79 0.69 1.02 0.57 0.41 0.48 0.61 0.59 0.53 0.49 0.43 0.49
0.52 0.56 0.62 0.43 0.94 0.84 0.55 0.67 0.87 1.03 1.47 1.50 1.50 1.52 1.47 1.27 1.14 1.21 1.37 1.54 1.50 1.22 1.10 1.09 0.97 0.94 0.86 0.76 0.82 0.86 0.52 0.47 0.54 0.68 0.71 0.76 0.69 0.69
0.74 0.75 1.27 0.91 1.27 0.94 0.78 0.75 0.95 1.05 1.04 1.09 1.17 1.17 1.10 1.08 1.20 0.99 1.05 1.57 1.93 1.82 1.43 1.33 1.15 1.16 1.27 1.12 0.92 0.81 0.69 0.62 0.59 0.61 0.65 0.67 0.58 0.50
1.20 1.09 1.13 1.58 1.05 1.05 1.05 0.92 1.51 1.56 1.63 1.29 1.19 1.21 1.09 1.00 1.00 1.03 1.04 1.27 1.60 1.69 1.60 1.81 1.67 1.52 1.53 1.28 1.01 0.82 0.69 0.62 0.57 0.54 0.51 0.49 0.47 0.42
1.40 1.54 1.86 1.78 1.20 1.13 1.20 1.63 1.88 1.53 1.23 1.25 1.28 1.27 1.22 1.23 1.20 1.14 1.14 1.13 1.17 1.29 1.25 1.33 1.52 1.24 1.21 1.11 0.90 0.73 0.60 0.49 0.43 0.45 0.54 0.47 0.44 0.32
1.59 1.90 1.93 1.65 1.43 1.44 1.65 1.70 1.65 1.70 1.91 2.05 2.07 1.94 1.72 1.50 1.31 1.18 1.03 0.94 0.88 0.90 0.92 0.98 1.09 0.99 0.94 0.87 0.68 0.51 0.42 0.31 0.25 0.29 0.55 0.48 0.50 0.44
1.60 1.76 1.75 1.69 1.67 1.82 1.88 1.83 1.83 1.88 1.90 1.95 1.84 1.70 1.45 1.26 1.18 1.12 1.05 0.95 0.96 0.83 0.67 0.58 0.54 0.59 0.53 0.37 0.37 0.27 0.19 0.26 0.23 0.22 0.41 0.68 0.77 0.87
1.65 1.81 1.82 1.77 1.72 1.71 1.64 1.64 1.65 1.62 1.57 1.50 1.40 1.29 1.16 1.02 0.89 0.77 0.77 0.70 0.70 0.47 0.39 0.37 0.31 0.31 0.24 0.26 0.30 0.12 0.12 0.14 0.21 0.47 0.36 0.59 0.79 0.89
1.48 1.50 1.51 1.48 1.43 1.39 1.30 1.20 1.08 0.99 0.89 0.79 0.73 0.64 0.59 0.55 0.47 0.40 0.43 0.42 0.38 0.30 0.28 0.27 0.45 0.39 0.32 0.22 0.23 0.27 0.17 0.13 0.14 0.17 0.24 0.59 0.70 1.04
1.07 1.05 1.01 0.93 0.82 0.71 0.65 0.60 0.59 0.53 0.44 0.42 0.38 0.31 0.25 0.20 0.18 0.19 0.17 0.16 0.14 0.13 0.13 0.19 0.30 0.49 0.55 0.43 0.30 0.13 0.35 0.23 0.21 0.20 0.18 0.35 0.66 0.70
0.62 0.56 0.52 0.46 0.39 0.35 0.31 0.29 0.27 0.24 0.20 0.16 0.15 0.16 0.17 0.20 0.22 0.17 0.15 0.16 0.16 0.16 0.15 0.09 0.12 0.19 0.48 0.69 0.61 0.16 0.14 0.57 0.32 0.27 0.24 0.25 0.30 0.50
0.39 0.37 0.33 0.33 0.33 0.31 0.30 0.27 0.29 0.29 0.29 0.30 0.29 0.32 0.33 0.36 0.33 0.31 0.29 0.22 0.22 0.20 0.14 0.07 0.06 0.11 0.15 0.27 0.46 0.24 0.10 0.18 0.21 0.28 0.28 0.34 0.35 0.28
0.31 0.29 0.27 0.26 0.26 0.25 0.24 0.25 0.25 0.24 0.24 0.24 0.22 0.21 0.20 0.21 0.22 0.20 0.19 0.20 0.16 0.15 0.11 0.06 0.07 0.12 0.17 0.23 0.35 0.26 0.17 0.15 0.07 0.07 0.16 0.33 0.45 0.57
0.24 0.21 0.19 0.18 0.17 0.18 0.18 0.18 0.16 0.16 0.18 0.21 0.21 0.23 0.25 0.23 0.20 0.21 0.18 0.15 0.14 0.11 0.12 0.13 0.14 0.16 0.16 0.12 0.16 0.28 0.20 0.18 0.15 0.17 0.16 0.19 0.22 0.18